sat.trackr.live / text

‹ back to catalog

STARLINK-5891

NORAD 56351 · 2023-058AL

PAYLOAD ACTIVE UNKNOWN

§ Identity

Operator
Country
US
Launch date
2023-04-27
Launch site
AFWTR
Launch vehicle
Mass (kg)
RCS (m²)

Purposes: comms

External: N2YO · Heavens-Above · Gunter

§ Orbital elements

Epoch: 2026-05-24T23:19:36.193152Z

Period
95.64 min
Inclination
97.4485°
Eccentricity
0.0002344
Mean motion
15.05654404 rev/d
Perigee alt
547.9 km
Apogee alt
551.1 km
Semi-major
6,927.6 km
B*
-3.8391e-5
RAAN
146.0240°
Arg perigee
84.8928°
Mean anomaly
275.2567°
Rev number
16,967

§ Raw data

STARLINK-58911 56351U 23058AL  26144.97194668 -.00000613  00000+0 -38391-4 0  99942 56351  97.4485 146.0240 0002344  84.8928 275.2567 15.05654404169675

JSON: /api/v1/satellites/56351 · /tle

For live sub-satellite position, see the globe view (requires WebGL).

§ Visibility from observer

Set your observer location to see the next 7 days of passes ≥ 10°. The values pass through the URL so the page stays shareable.

No JS? Fill the form by hand. The geolocation button needs JavaScript.